Regional Weather Roundup
Issued by NWS

Home | Current Version | Previous Version | Graphics & Text | Print | Product List | Glossary On
Versions: 1 2 3 4 5 6 7 8 9 10 11 12 13 14 15 16 17 18 19 20 21 22 23 24 25 26 27 28
000
ASUS45 KTFX 191410
RWRMT
MONTANA REGIONAL WEATHER ROUNDUP
NATIONAL WEATHER SERVICE GREAT FALLS MT
800 AM MDT THU OCT 19 2017

NOTE: "FAIR" INDICATES FEW OR NO CLOUDS BELOW 12000 FEET WITH NO
SIGNIFICANT WEATHER AND/OR OBSTRUCTIONS TO VISIBILITY.

MTZ001>007-043-191500-
WEST OF THE DIVIDE

CITY           SKY/WX    TMP DP  RH WIND       PRES   REMARKS
KALISPELL      CLOUDY    53  35  50 S10       29.64F
MISSOULA       MOCLDY    33  31  92 CALM      29.74S
BUTTE          CLOUDY    34  24  67 CALM      29.86F
MULLAN PASS    MOCLDY    45  23  42 SW8G21    29.74F
ANACONDA         N/A     54  18  24 S16       29.81F
DEER LODGE       N/A     48  21  34 SW7       29.81S
EUREKA           N/A     57  36  44 MISG      29.61S
HAMILTON         N/A     55  21  26 S12       29.73S
LIBBY            N/A     55  37  50 SW8       29.60F
PLAINS           N/A     31  26  81 CALM      29.71F VSB 0
$$

MTZ008-052>055-191500-
SOUTHWEST MONTANA

CITY           SKY/WX    TMP DP  RH WIND       PRES   REMARKS
BOZEMAN        CLOUDY    38  25  59 SE6       29.84F
DILLON         CLOUDY    36  20  52 E3        29.89F
W YELLOWSTONE  CLOUDY    21  19  93 CALM      30.06S
ENNIS          CLOUDY    45  21  39 SW18      29.95F
THREE FORKS      N/A     58  21  24 S2        29.84F
TWIN BRIDGES     N/A     42  20  41 CALM      29.88F
$$

MTZ009-010-012-014-046-048-049-054-191500-
EAST SLOPES AND CENTRAL MONTANA

CITY           SKY/WX    TMP DP  RH WIND       PRES   REMARKS
CUT BANK       CLOUDY    56  22  26 W10       29.59R
GREAT FALLS    CLOUDY    59  21  23 S20       29.67R
MALMSTROM AFB  CLOUDY    59  22  24 S24G30    29.66S
HELENA         CLOUDY    44  28  53 VRB7      29.73F
BOWMANS CRNR     N/A     53  20  27 S21       29.66F
CHOTEAU          N/A     55  23  28 S13       29.64F
FAIRFIELD        N/A     57  21  24 S15       29.64S
POWER            N/A     51  22  31 S12       29.64S
RAYNESFORD       N/A     61  19  20 SW13      29.70F
ULM              N/A     56  23  27 S16       29.67R
$$

MTZ011-013-016-021-045-047-050-051-191500-
NORTH CENTRAL MONTANA

CITY           SKY/WX    TMP DP  RH WIND       PRES   REMARKS
HAVRE          CLOUDY    57  26  30 SW18      29.58S
LEWISTOWN      CLOUDY    58  21  24 SW15      29.74F
N BAR RANCH      N/A     59  19  21 SW15G23   29.79F
CHINOOK          N/A     52  30  43 NE7       29.60R
DENTON           N/A     52  24  33 SW14      29.67F
GEYSER           N/A     49  22  35 SW3       29.70F
GRASS RANGE      N/A     56  22  26 SW15      29.70F
JUDITH GAP       N/A     46  24  41 SW8       29.80F
WINIFRED         N/A     61  21  21 SW18G28   29.69S
$$

MTZ017>020-022>027-061-062-191500-
NORTHEAST MONTANA

CITY           SKY/WX    TMP DP  RH WIND       PRES   REMARKS
GLASGOW        CLOUDY    43  34  70 E6        29.66S
JORDAN           N/A     54  29  38 W13       29.72R
SIDNEY         CLOUDY    40  31  70 S6        29.72F
WOLF POINT     CLOUDY    37  29  72 N5        29.69R
MALTA          CLEAR     46  34  61 W9        29.65S
PLENTYWOOD       N/A     43  28  56 CALM      29.68S
POPLAR           N/A     43  30  61 N3        29.70R
SCOBEY           N/A     48  26  42 CALM      29.67S
$$

MTZ028>42-056>058-191500-
SOUTHCENTRAL AND SOUTHEAST MONTANA

CITY           SKY/WX    TMP DP  RH WIND       PRES   REMARKS
BAKER          CLOUDY    36  30  79 CALM      29.82R
BILLINGS       CLOUDY    58  23  26 SW14      29.81R
LIVINGSTON     CLOUDY    57  22  25 W16G28    29.84S
MILES CITY     CLOUDY    45  32  60 SE10      29.78S
BIG TIMBER     CLEAR     54  21  28 W13       29.86S
FORSYTH          N/A     43  32  65 CALM      29.77S
HARLOWTON        N/A     41  27  55 MISG      29.80R
LAUREL           N/A     57  23  26 SW20G25   29.81S
$$

REGIONAL REPORTS...DAKOTAS

CITY           SKY/WX    TMP DP  RH WIND       PRES   REMARKS
WILLISTON      CLOUDY    37  30  75 S5        29.71S
MINOT          CLOUDY    50  29  44 S16       29.70F
DICKINSON      CLOUDY    46  30  53 S7        29.76S
BEACH            N/A     48  28  46 SW12      29.80R
CROSBY           N/A     41  30  65 S15       29.68S
TIOGA            N/A     36  32  87 CALM      29.73R
WATFORD CITY     N/A     36  30  80 CALM      29.73R
BISMARCK       PTCLDY    42  34  73 SE8       29.81R
GRAND FORKS    PTCLDY    39  28  64 SE10      29.85S
FARGO          SUNNY     45  31  58 SE13      29.88F
BUFFALO SD       N/A     48  26  42 CALM      29.77S
RAPID CITY     CLOUDY    48  27  44 SE7       29.87S
$$

REGIONAL REPORTS...WYOMING/IDAHO/WASHINGTON

CITY           SKY/WX    TMP DP  RH WIND       PRES   REMARKS
GILLETTE       CLOUDY    50  22  33 S5        29.90S
SHERIDAN       CLOUDY    39  30  70 CALM      29.84F
BUFFALO WY     CLOUDY    50  20  30 SW8       29.91F
YELLOWSTONE LA   N/A     25  22  88 CALM      30.13R
IDAHO FALLS    CLOUDY    30  26  85 N6        30.00F WCI  24
BOISE          CLEAR     48  27  44 SE10      29.84S
SPOKANE        CLOUDY    56  39  53 S16       29.62R
$$

REGIONAL REPORTS...ALBERTA

CITY           SKY/WX    TMP DP  RH WIND       PRES   REMARKS
EDMONTON       CLEAR     36  30  80 SW5         N/A
CALGARY        MOCLDY    45  34  65 CALM      29.41R
LETHBRIDGE     MOCLDY    52  32  46 SW17      29.49R
MEDICINE HAT   CLOUDY    61  28  29 SW21G29   29.48R
$$

REGIONAL REPORTS...SASKATCHEWAN

CITY           SKY/WX    TMP DP  RH WIND       PRES   REMARKS
SWIFT CURRENT  MOCLDY    57  32  38 SW23G30   29.51S
REGINA         CLOUDY    41  27  56 SE9       29.57F
SASKATOON      MOCLDY    45  32  61 S13       29.43S
$$




USA.gov is the U.S. government's official web portal to all federal, state and local government web resources and services.